Regional Weather Roundup
Issued by NWS Upton, NY

Current Version | Previous Version | Text Only | Print | Product List | Glossary On
Versions: 1 2 3 4 5 6 7 8 9 10 11 12 13 14 15 16 17 18 19 20 21 22 23 24 25 26 27 28 29 30 31 32 33 34 35 36 37 38 39 40 41 42 43 44 45 46 47 48 49 50
000 ASUS41 KOKX 040004 RWROKX REGIONAL WEATHER ROUNDUP NATIONAL WEATHER SERVICE NEW YORK NY 800 PM EDT MON AUG 03 2015 NOTE: "FAIR" INDICATES FEW OR NO CLOUDS BELOW 12,000 FEET WITH NO SIGNIFICANT WEATHER AND/OR OBSTRUCTIONS TO VISIBILITY. NYZ071-072-176-178-NJZ106-104-040100- NEW YORK CITY METRO AREA CITY SKY/WX TMP DP RH WIND PRES REMARKS CENTRAL PARK PTCLDY 86 59 39 MISG 29.80S LAGUARDIA APRT MOCLDY 88 58 36 S14G21 29.77R KENNEDY INTL MOCLDY 79 72 79 S18 29.80R NEWARK/LIBERTY MOCLDY 88 58 36 SW15 29.77S BRNX BOT. GARD N/A 86 57 37 S6 29.79R TETERBORO PTCLDY 87 54 32 SW15G22 29.76R $$ NYZ177-179-078>081-040100- LONG ISLAND NEW YORK CITY SKY/WX TMP DP RH WIND PRES REMARKS FARMINGDALE PTCLDY 80 72 76 SW18G26 29.80S ISLIP PTCLDY 79 72 79 SW13G22 29.79S SHIRLEY PTCLDY 78 72 81 S14G20 29.82R WESTHAMPTON CLEAR 78 72 81 S9G20 29.83R MONTAUK POINT N/A 77 71 82 S9 29.83R $$ NYZ052-065-067-040100- HUDSON VALLEY CITY SKY/WX TMP DP RH WIND PRES REMARKS WHITE PLAINS PTCLDY 79 68 69 S7 29.78S NEWBURGH PTCLDY 81 64 57 W12G17 29.78R MONTGOMERY MOCLDY 79 68 69 CALM 29.77R POUGHKEEPSIE MOCLDY 83 63 50 W3 29.75R ALBANY MOCLDY 72 68 87 SE5 29.74S $$ NJZ001-105-106-008-010-013-015-019>022-104-040100- NEW JERSEY CITY SKY/WX TMP DP RH WIND PRES REMARKS NEWARK/LIBERTY MOCLDY 88 58 36 SW15 29.77S TETERBORO PTCLDY 87 54 32 SW15G22 29.76R CALDWELL PTCLDY 85 57 38 VRB5 29.78R MORRISTOWN PTCLDY 86 57 37 W8 29.78S SOMERVILLE MOCLDY 84 58 40 CALM 29.77R SUSSEX MOCLDY 79 64 60 CALM 29.78S ANDOVER N/A 77 65 66 S3 29.80S TRENTON PTCLDY 84 59 42 SW5 29.79S MILLVILLE CLEAR 84 69 60 SW6 29.82S ATLANTIC CITY CLEAR 82 72 71 S6 29.82R WRIGHTSTOWN PTCLDY 82 63 51 SW10 29.78S TOMS RIVER N/A 81 72 74 S5 29.81S BELMAR PTCLDY 82 68 61 SW8 29.81S $$ PAZ047>061-062-071-040100- EASTERN PENNSYLVANIA CITY SKY/WX TMP DP RH WIND PRES REMARKS PHILADELPHIA PTCLDY 87 62 43 SW15 29.80S ALLENTOWN LGT RAIN 74 66 76 SW6 29.80R SCRANTON CLEAR 82 61 48 SW7 29.79S $$ CTZ002-004>006-009-010-012-RIZ004-006-007-MAZ004-011-015-040100- SOUTHERN NEW ENGLAND IN CT CITY SKY/WX TMP DP RH WIND PRES REMARKS BRADLEY INTL MOCLDY 81 64 56 S10 29.75R HARTFORD PTCLDY 82 66 58 S12 29.76R DANBURY PTCLDY 80 65 59 S12 29.79R WTRBRY/OXFORD MOCLDY 79 64 61 SW9G17 29.81S BRIDGEPORT MOCLDY 80 70 71 S16 29.77R MERIDEN PTCLDY 81 67 62 S12 29.77R NEW HAVEN MOCLDY 78 70 76 S10 29.78S CHESTER NOT AVBL GROTON CLEAR 75 71 87 SW14 29.80R WILLIMANTIC PTCLDY 79 67 66 S9G18 29.79R IN RI CITY SKY/WX TMP DP RH WIND PRES REMARKS PROVIDENCE MOCLDY 77 68 73 SW13 29.81R BLOCK ISLAND N/A 75 72 88 SW12G20 29.83R WESTERLY CLEAR 76 70 82 S10 29.82R IN MA CITY SKY/WX TMP DP RH WIND PRES REMARKS BOSTON MOCLDY 79 62 56 S14 29.77R WORCESTER MOCLDY 75 63 66 S13 29.81R WESTFIELD MOCLDY 80 64 58 S9 29.76R PROVINCETOWN CLEAR 73 63 68 SW14 29.81R NANTUCKET PTCLDY 74 71 91 SW14 29.84S $$ ANZ330-335-338-340-345-350-353-355-040100- COASTAL MARINE OBSERVATIONS STATION/POSITION TIME SKY/WX TEMP WIND PRES VSBY WAVE AIR SEA DIR/SP/G HT/PER (UTC) (F) (DEG/KT/KT) (MB) (MI) (FT/S) NY HARB ENTRANCE 2250 78 77 200/ 23/ 27 1007.9 5/ 5 4S FIRE IS NOT AVBL 20S FIRE ISLAND 2250 78 77 200/ 17/ 21 1008.8 4/ 5 GREAT SOUTH BAY 2315 78 81 240/ 8/ 21 N/A 23SW MTP 2350 77 74 210/ 17/ 19 1009.3 5/ 5 HUDSON CANYON NOT AVBL KINGS POINT 2300 80 74 190/ 14/ 16 1007.5 EXECUTION ROCKS 2300 80 180/ 8/ 10 N/A CENTRAL LI SOUND NOT AVBL EASTERN LI SOUND 2300 77 68 200/ 14/ 17 N/A ROBBINS REEF 2300 87 220/ 13/ 15 1006.9 $$ >>>>>>>>>>>>>>>>>>>>>>>>>>>> KEY <<<<<<<<<<<<<<<<<<<<<<<<<<< > < > SKY/WX - SKY CONDITION/PRESENT WEATHER < > TMP - TEMPERATURE IN FAHRENHEIT < > DP - DEWPOINT IN FAHRENHEIT < > RH - RELATIVE HUMIDITY IN PERCENT < > WIND - DIRECTION AND SPEED IN MPH < > PRES - MEAN SEA LEVEL PRESSURE IN INCHES OF HG < > WCI - WIND CHILL INDEX < > VSB - VISIBILITY IN MILES < > HX - HEAT INDEX < > TC - TEMPERATURE IN CELSIUS < > VRB - VARIABLE WIND DIRECTION < > < >>>>>>>>>>>>>>>>>>>>>>>>>>>> KEY <<<<<<<<<<<<<<<<<<<<<<<<<<<

USA.gov is the U.S. government's official web portal to all federal, state and local government web resources and services.